Find Starlink 32285

NORAD ID: 60355 Int'l Des: 2024-138 Owner: SPXS Country: US Constellation: starlink operational
LEOCIRCULAR

現在のビュー

3D地球を読み込み中...

About Starlink 32285

Starlink 32285 (NORAD 60355) is a starlink constellation satellite (v2 mini) launched Aug 4, 2024 by SPXS of US. It operates in LEO, CIRCULAR orbit with a mass of 730.00 kg.

次回通過

Passes for default location (London). Set your location on the main map for personalized predictions.

高度履歴

Loading altitude history...

軌道要素

1 60355U 24138A 26265.74106458 -.00000331 00000-0 13340-5 0 9997
2 60355 53.1599 111.0171 0001394 94.6380 265.4782 15.34387475120848
Epoch: Sep 22, 2026 • Age: 11 hours

現在のステータス

高度 467.7 km
遠地点 / 近地点 N/A
速度 7.64 km/s
衛星直下点 49.89°N, 93.3°E
打ち上げ日 Aug 4, 2024
運用期間 2.1 years
タイプ internet

技術仕様

分類 Payload
質量 730.00 kg
乾燥質量 700.00 kg
長さ 0.30 m
スパン 29.00 m
形状 ? Box + pan
製造者 SPXS
バスタイプ Starlink V2M
フェーズステータス In Orbit
所有者/国 SPXS/US

Most Searched